Simultaneous Nadir Overpasses (SNOs) Predictions

Prediction of SNOs between LANDSAT-8 and METOP-A Satellite Orbit:

Table of predicted SNOs for the next 14.0 days since TLE Epoch: 8/3/2019
Index Date (LANDSAT-8) Time (LANDSAT-8) Lat,Lon (LANDSAT-8) SZA (LANDSAT-8 ) Date (METOP-A) Time (METOP-A) Lat,Lon (METOP-A) SZA (METOP-A ) Distance(km) Time Diff (sec)
1 08/03/2019 14:49:59 -81.48,-175.79 113.40 08/03/2019 14:49:07 -81.47,-175.78 113.42 0.68 52
2 08/03/2019 15:39:26 81.47, -8.42 66.58 08/03/2019 15:39:47 81.47, -8.25 66.61 2.81 21
3 08/06/2019 10:24:16 -81.47,-109.57 112.67 08/06/2019 10:23:04 -81.47,-109.48 112.69 1.58 72
4 08/06/2019 11:13:42 81.47, 58.17 67.36 08/06/2019 11:13:43 81.47, 58.35 67.38 2.90 1
5 08/06/2019 12:03:03 -81.57,-131.86 112.32 08/06/2019 12:04:17 -81.46,-131.71 112.34 12.58 74
6 08/09/2019 06:47:57 81.48, 124.74 68.17 08/09/2019 06:47:25 81.47, 124.59 68.14 2.62 32
7 08/09/2019 07:37:24 -81.48, -67.65 111.82 08/09/2019 07:38:04 -81.47, -67.49 111.79 2.79 40
8 08/12/2019 03:11:41 -81.47, -1.46 111.03 08/12/2019 03:11:34 -81.47, -1.62 111.04 2.76 7
9 08/12/2019 04:01:07 81.47, 166.23 69.00 08/12/2019 04:02:12 81.47, 166.37 69.04 2.40 65
10 08/14/2019 22:45:57 -81.47, 65.11 110.14 08/14/2019 22:44:48 -81.47, 65.08 110.18 0.50 69




NCC Satellite Simultaneous Nadir Overpasses (SNOs) Prediction Service
